This demonstration page uses our WeatherBlox Daily Observations layout. Learn more.

Left ArrowRight Arrow

44.89941, -97.11507

Hourly Observations for April 28, 2019

Temp ( °F °C ) Dew Point ( °F °C ) Humidity (%) Winds ( mph kmh ) Pressure ( in mb ) Visibility ( mi km ) Precip ( " mm )
12:53 am 00:53 Clear 37 2.8 32 0 82 82 SSW 7 11 30.07 1018 10 16 0.00 0.00
1:53 am 01:53 Clear 36 2.2 32 0 86 86 SSE 7 11 30.06 1018 10 16 0.00 0.00
2:53 am 02:53 Clear 35 1.7 31 -0.6 85 85 SSE 10 17 30.04 1017 10 16 0.00 0.00
3:53 am 03:53 Clear 34 1.1 30 -1.1 85 85 SSE 8 13 30.04 1017 10 16 0.00 0.00
4:53 am 04:53 Clear 35 1.7 30 -1.1 82 82 SSE 7 11 30.06 1018 10 16 0.00 0.00
5:53 am 05:53 Clear 35 1.7 30 -1.1 82 82 SSE 9 15 30.06 1018 10 16 0.00 0.00
6:53 am 06:53 Cloudy 36 2.2 30 -1.1 79 79 SSE 10 17 30.05 1018 10 16 0.00 0.00
7:53 am 07:53 Cloudy 36 2.2 30 -1.1 79 79 SSE 12 19 30.05 1018 10 16 0.00 0.00
8:53 am 08:53 Cloudy 37 2.8 29 -1.7 73 73 SSE 16 26 30.02 1017 10 16 0.00 0.00
9:53 am 09:53 Cloudy 37 2.8 29 -1.7 73 73 SSE 18 30 30.00 1016 10 16 0.00 0.00
10:53 am 10:53 Cloudy 39 3.9 27 -2.8 62 62 SE 20 31 29.98 1015 10 16 0.00 0.00
11:53 am 11:53 Cloudy 40 4.4 26 -3.3 58 58 SE 22 35 29.99 1016 10 16 0.00 0.00
12:53 pm 12:53 Cloudy 41 5 26 -3.3 55 55 SSE 24 39 29.98 1015 10 16 0.00 0.00
1:53 pm 13:53 Cloudy 44 6.7 29 -1.7 55 55 SSE 20 31 29.94 1014 10 16 0.00 0.00
2:53 pm 14:53 Cloudy 46 7.8 29 -1.7 51 51 SSE 29 46 29.91 1013 10 16 0.00 0.00
3:53 pm 15:53 Cloudy 46 7.8 30 -1.1 54 54 SE 22 35 29.88 1012 10 16 0.00 0.00
4:53 pm 16:53 Cloudy 45 7.2 31 -0.6 58 58 SE 23 37 29.88 1012 10 16 0.00 0.00
5:53 pm 17:53 Cloudy 45 7.2 31 -0.6 58 58 SSE 15 24 29.87 1012 10 16 0.00 0.00
6:53 pm 18:53 Cloudy 44 6.7 32 0 63 63 SSE 15 24 29.92 1013 10 16 0.00 0.00
7:53 pm 19:53 Cloudy 43 6.1 34 1.1 71 71 SSE 16 26 29.89 1012 10 16 0.00 0.03
8:08 pm 20:08 Cloudy with Rain 42 5.6 35 1.7 76 76 SE 17 28 29.89 1012 6 10 0.01 0.25
8:53 pm 20:53 Cloudy with Light Rain 41 5 35 1.7 79 79 SSE 18 30 29.90 1013 10 16 0.08 2.03
9:40 pm 21:40 Cloudy with Light Rain 40 4.4 35 1.7 83 83 ESE 6 9 29.94 1014 10 16 0.00 0.03
9:53 pm 21:53 Cloudy with Light Rain 40 4.4 35 1.7 83 83 ESE 5 7 29.93 1014 10 16 0.01 0.25
10:14 pm 22:14 Cloudy with Light Rain 40 4.4 36 2.2 86 86 ESE 5 7 29.94 1014 9 14 0.02 0.51
10:53 pm 22:53 Cloudy with Light Rain 40 4.4 36 2.2 86 86 ESE 8 13 29.93 1014 10 16 0.02 0.51
11:53 pm 23:53 Cloudy 40 4.4 37 2.8 89 89 ESE 3 6 29.92 1013 10 16 0.02 0.51

Powered by AerisWeather